TimeEST,TemperatureF,Dew PointF,Humidity,Sea Level PressureIn,VisibilityMPH,Wind Direction,Wind SpeedMPH,Gust SpeedMPH,PrecipitationIn,Events,Conditions,WindDirDegrees,DateUTC
12:53 AM,41.0,32.0,70,29.99,10.0,Calm,Calm,-,N/A,,Overcast,0,2013-02-23 05:53:00
1:53 AM,41.0,33.1,73,29.98,10.0,Calm,Calm,-,N/A,,Overcast,0,2013-02-23 06:53:00
2:53 AM,42.1,33.1,70,29.95,10.0,ESE,3.5,-,N/A,,Mostly Cloudy,120,2013-02-23 07:53:00
3:53 AM,41.0,33.1,73,29.94,10.0,Calm,Calm,-,N/A,,Partly Cloudy,0,2013-02-23 08:53:00
4:05 AM,39.2,33.8,81,29.93,10.0,Calm,Calm,-,N/A,,Mostly Cloudy,0,2013-02-23 09:05:00
4:53 AM,39.9,33.1,77,29.94,10.0,SE,3.5,-,N/A,,Overcast,130,2013-02-23 09:53:00
5:07 AM,39.2,33.8,81,29.92,10.0,SE,3.5,-,N/A,,Overcast,140,2013-02-23 10:07:00
5:53 AM,42.1,34.0,73,29.95,10.0,Calm,Calm,-,N/A,,Overcast,0,2013-02-23 10:53:00
6:01 AM,39.2,33.8,81,29.93,10.0,Calm,Calm,-,N/A,,Overcast,0,2013-02-23 11:01:00
6:41 AM,41.0,33.8,76,29.92,10.0,South,3.5,-,N/A,,Overcast,170,2013-02-23 11:41:00
6:53 AM,42.1,34.0,73,29.95,10.0,Calm,Calm,-,N/A,,Overcast,0,2013-02-23 11:53:00
7:53 AM,43.0,35.1,74,29.94,8.0,Calm,Calm,-,N/A,,Overcast,0,2013-02-23 12:53:00
8:53 AM,43.0,35.1,74,29.94,8.0,Calm,Calm,-,N/A,,Overcast,0,2013-02-23 13:53:00
9:53 AM,45.0,37.0,74,29.94,9.0,Calm,Calm,-,N/A,,Overcast,0,2013-02-23 14:53:00
10:53 AM,48.0,39.0,71,29.94,10.0,Calm,Calm,-,N/A,,Overcast,0,2013-02-23 15:53:00
11:53 AM,48.9,39.0,69,29.93,10.0,Calm,Calm,-,N/A,,Overcast,0,2013-02-23 16:53:00
12:46 PM,51.8,39.2,62,29.88,10.0,Variable,3.5,-,N/A,,Overcast,0,2013-02-23 17:46:00
12:53 PM,52.0,39.0,61,29.89,10.0,Variable,4.6,-,N/A,,Overcast,0,2013-02-23 17:53:00
1:53 PM,55.0,36.0,49,29.87,10.0,Variable,4.6,-,N/A,,Partly Cloudy,0,2013-02-23 18:53:00
2:53 PM,57.0,35.1,44,29.83,10.0,Variable,6.9,-,N/A,,Scattered Clouds,0,2013-02-23 19:53:00
3:53 PM,57.0,35.1,44,29.84,10.0,Variable,4.6,-,N/A,,Mostly Cloudy,0,2013-02-23 20:53:00
4:53 PM,54.0,34.0,47,29.84,10.0,NNW,8.1,-,N/A,,Mostly Cloudy,330,2013-02-23 21:53:00
5:53 PM,50.0,34.0,54,29.86,10.0,NNW,4.6,-,N/A,,Partly Cloudy,340,2013-02-23 22:53:00
6:53 PM,46.9,34.0,61,29.87,10.0,Calm,Calm,-,N/A,,Clear,0,2013-02-23 23:53:00
7:53 PM,43.0,32.0,65,29.86,10.0,North,3.5,-,N/A,,Clear,360,2013-02-24 00:53:00
8:53 PM,42.1,33.1,70,29.88,10.0,Calm,Calm,-,N/A,,Clear,0,2013-02-24 01:53:00
9:53 PM,41.0,33.1,73,29.87,8.0,Calm,Calm,-,N/A,,Clear,0,2013-02-24 02:53:00
10:53 PM,39.0,32.0,76,29.86,6.0,Calm,Calm,-,N/A,,Haze,0,2013-02-24 03:53:00
11:53 PM,37.0,30.9,79,29.86,6.0,Calm,Calm,-,N/A,,Haze,0,2013-02-24 04:53:00